Troy, AL

4:04 PM CDT on March 26, 2017 (GMT -0500)
Troy Municipal

Weather History for KTOI - March, 2012

Change the Weather History Date:

Wednesday, March 21, 2012

  Actual Average Record
Temperature  
Mean Temperature 73 °F 58 °F  
Max Temperature 83 °F 71 °F 86 °F (2017)
Min Temperature 62 °F 44 °F 32 °F (2013)
Degree Days  
Heating Degree Days 0 8  
Month to date heating degree days 73 212  
Since 1 July heating degree days 1683 2131  
Cooling Degree Days 8 1  
Month to date cooling degree days 61 1  
Year to date cooling degree days 69 6  
Growing Degree Days 22 (Base 50)    
Moisture  
Dew Point 57 °F    
Average Humidity 65    
Maximum Humidity 90    
Minimum Humidity 40    
Precipitation  
Precipitation 0.00 in 0.21 in 0.63 in (2002)
Month to date precipitation 0.75 3.80  
Year to date precipitation 10.09 12.93  
Snow  
Snow 0.00 in - - ()
Month to date snowfall 0.0  
Since 1 July snowfall 0.0  
Snow Depth 0.00 in    
Sea Level Pressure  
Sea Level Pressure 30.08 in    
Wind  
Wind Speed 9 mph (SE)    
Max Wind Speed 20 mph    
Max Gust Speed 26 mph    
Visibility 10 miles    
Events      
T = Trace of Precipitation, MM = Missing Value Source: NWS Daily Summary

Daily Weather History Graph

Daily Weather History Graph

Search for Another Location

Airport or City:

Trip Planner

Search our weather history database for the weather conditions in past years. The results will help you decide how hot, cold, wet, or windy it might be!

Date:

Astronomy

Mar. 21, 2012 Rise Set
Actual Time 6:45 AM CDT 6:56 PM CDT
Civil Twilight 6:21 AM CDT 7:20 PM CDT
Nautical Twilight 5:53 AM CDT 7:49 PM CDT
Astronomical Twilight 5:24 AM CDT 8:18 PM CDT
Moon 5:55 AM CDT (3/21) 6:21 PM CDT (3/21)
Length of Visible Light 12h 59m
Length of Day
12h 10m
Waning Crescent, 1% of the Moon is Illuminated
Mar 21
Waning Crescent
Mar 22
New
Mar 30
First Quarter
Apr 6
Full
Apr 13
Last Quarter

Hourly Weather History & Observations

Time (CDT) Temp. Heat Index Dew Point Humidity Pressure Visibility Wind Dir Wind Speed Gust Speed Precip Events Conditions
12:53 AM 63.0 °F - 55.9 °F 78% 30.07 in 10.0 mi ENE 3.5 mph - N/A   Mostly Cloudy
1:53 AM 63.0 °F - 55.0 °F 75% 30.07 in 10.0 mi Calm Calm - N/A   Clear
2:53 AM 64.0 °F - 55.0 °F 73% 30.07 in 10.0 mi East 3.5 mph - N/A   Clear
3:53 AM 64.0 °F - 55.9 °F 75% 30.07 in 10.0 mi East 6.9 mph - N/A   Clear
4:53 AM 64.0 °F - 57.9 °F 80% 30.07 in 10.0 mi ESE 9.2 mph - N/A   Clear
5:53 AM 64.0 °F - 59.0 °F 84% 30.08 in 10.0 mi ESE 10.4 mph - N/A   Clear
6:53 AM 63.0 °F - 59.0 °F 87% 30.10 in 10.0 mi ESE 9.2 mph - N/A   Clear
7:53 AM 64.9 °F - 60.1 °F 84% 30.11 in 10.0 mi ESE 9.2 mph - N/A   Clear
8:53 AM 69.1 °F - 62.1 °F 78% 30.11 in 10.0 mi SE 16.1 mph 21.9 mph N/A   Clear
9:53 AM 73.0 °F - 62.1 °F 68% 30.12 in 10.0 mi SE 15.0 mph 20.7 mph N/A   Clear
10:53 AM 77.0 °F - 61.0 °F 58% 30.12 in 10.0 mi SE 18.4 mph 24.2 mph N/A   Clear
11:53 AM 79.0 °F - 60.1 °F 52% 30.10 in 10.0 mi SSE 12.7 mph - N/A   Scattered Clouds
12:53 PM 82.0 °F 81.7 °F 57.0 °F 42% 30.08 in 10.0 mi SSE 18.4 mph 24.2 mph N/A   Scattered Clouds
1:53 PM 81.0 °F 80.8 °F 55.9 °F 42% 30.05 in 10.0 mi SSE 11.5 mph 23.0 mph N/A   Scattered Clouds
2:53 PM 82.9 °F 82.1 °F 55.9 °F 39% 30.05 in 10.0 mi South 11.5 mph 19.6 mph N/A   Scattered Clouds
3:53 PM 80.1 °F 80.4 °F 57.0 °F 45% 30.06 in 10.0 mi SE 8.1 mph - N/A   Mostly Cloudy
4:53 PM 82.0 °F 81.6 °F 55.9 °F 41% 30.04 in 10.0 mi SE 13.8 mph - N/A   Clear
5:53 PM 80.1 °F 80.2 °F 55.9 °F 43% 30.03 in 10.0 mi SE 10.4 mph - N/A   Clear
6:53 PM 77.0 °F - 55.9 °F 48% 30.04 in 10.0 mi SSE 5.8 mph - N/A   Clear
7:53 PM 73.9 °F - 55.9 °F 53% 30.05 in 10.0 mi SE 8.1 mph - N/A   Clear
8:53 PM 70.0 °F - 55.0 °F 59% 30.08 in 10.0 mi SE 3.5 mph - N/A   Clear
9:53 PM 66.9 °F - 55.9 °F 68% 30.10 in 10.0 mi ESE 4.6 mph - N/A   Clear
10:53 PM 66.0 °F - 55.0 °F 68% 30.12 in 10.0 mi SE 5.8 mph - N/A   Clear
11:53 PM 68.0 °F - 55.9 °F 65% 30.12 in 10.0 mi SSE 5.8 mph - N/A   Clear